Regional Weather Roundup
Issued by NWS Kansas City/Pleasant Hill, MO

Home | Current Version | Previous Version | Text Only | Print | Product List | Glossary On
Versions: 1 2 3 4 5 6 7 8 9 10 11 12 13 14 15 16 17 18 19 20 21 22 23 24 25 26 27 28
000
ASUS43 KEAX 301310
RWREAX

WEATHER ROUNDUP FOR EASTERN KANSAS AND NORTHWEST MISSOURI
NATIONAL WEATHER SERVICE KANSAS CITY/PLEASANT HILL MO
800 AM CDT MON MAY 30 2016

KSZ040-057-103>105-MOZ028-029-037-043-301400-
...KANSAS CITY METROPOLITAN AREA...

CITY           SKY/WX    TMP DP  RH WIND       PRES   REMARKS
K.C. INTL      PTSUNNY   71  65  81 SE5       30.06R
K.C. DOWNTOWN  MOSUNNY   71  64  78 E3        30.05S
LEES SUMMIT    MOSUNNY   71  65  81 S3        30.07R
OLATHE - IXD   CLOUDY    69  65  86 CALM      30.06S
OLATHE - OJC   CLOUDY    68  64  87 CALM      30.06S
LAWRENCE       CLOUDY    67  65  93 E3        30.05S

$$

MOZ001>008-011>017-020>025-030>033-038>040-044>046-053-054-301400-
...NORTHERN AND CENTRAL MISSOURI...

CITY           SKY/WX    TMP DP  RH WIND       PRES   REMARKS
ST. JOSEPH     SUNNY     70  64  81 CALM      30.04S
MOSBY          SUNNY     64  63  94 CALM      30.07R
WARRENSBURG    MOSUNNY   68  64  88 S3        30.08R
WHITEMAN AFB   SUNNY     70  70 100 SW6       30.07R
CLINTON        MOSUNNY   68  66  94 CALM      30.08S
SEDALIA        SUNNY     72  66  81 S5        30.09R
WARSAW         NOT AVBL
CHILLICOTHE      N/A     71  66  84 CALM      30.07S
KIRKSVILLE     MOSUNNY   72  64  76 W6        30.08R

$$

MOZ041-047>049-056>058-063>065-088>090-097-301400-
...EASTERN AND SOUTHERN MISSOURI...

CITY           SKY/WX    TMP DP  RH WIND       PRES   REMARKS
ST. LOUIS INTL MOSUNNY   76  63  64 W6        30.09R
SPIRIT OF STL  SUNNY     71  66  84 CALM      30.08R
COLUMBIA       SUNNY     70  66  87 S5        30.10R
JEFFERSON CITY SUNNY     68  64  87 E3        30.09R
ROLLA          SUNNY     71  65  81 SW6       30.10R
SPRINGFIELD    CLOUDY    71  64  78 SE7       30.08S
BRANSON        CLOUDY    68  64  88 CALM      30.10S
JOPLIN         CLOUDY    70  65  84 S6        30.06S
WEST PLAINS    SUNNY     70  63  78 CALM      30.12R

$$

IAZ060-094-KSZ022-034>040-054-083-096-NEZ052-066-093-301400-
...KANSAS...SOUTHEAST NEBRASKA AND IOWA...

CITY           SKY/WX    TMP DP  RH WIND       PRES   REMARKS
TOPEKA         MOSUNNY   68  66  93 E5        30.04S
MANHATTAN      SUNNY     67  62  84 CALM      30.03R
EMPORIA        MOSUNNY   65  64  97 CALM      30.03F
CHANUTE        CLOUDY    68  63  84 S3        30.04S
WICHITA        CLOUDY    65  58  78 SW5       30.03S
OMAHA          MOSUNNY   69  63  81 S6        30.02S
LINCOLN        MOSUNNY   67  60  78 N6        30.02S
FALLS CITY     SUNNY     71  63  75 S5        30.01S
LAMONI         SUNNY     69  63  81 S3        30.05S
DES MOINES     MOSUNNY   70  62  76 S7        30.03R

$$





USA.gov is the U.S. government's official web portal to all federal, state and local government web resources and services.